Location: TAAA CAC
(31.8680°N, 109.5150°W)
Time: 16:52:40
(UTC-07:00)

Tiangong - Visible Passes

Search period start: 13 March 2026 00:00
Search period end: 23 March 2026 00:00
Orbit: 381 x 390 km, 41.5° (Epoch: 13 March)

Date Brightness Start Highest point End Pass type
(mag) Time Alt. Az. Time Alt. Az. Time Alt. Az.
13 Mar -1.0 05:03:04 33° N 05:03:04 33° N 05:05:44 10° NE visible
14 Mar 0.0 05:38:35 12° NW 05:40:26 18° N 05:42:41 10° NE visible
15 Mar 0.2 04:41:47 19° NNE 04:41:47 19° NNE 04:43:15 10° NE visible
16 Mar 0.2 05:17:06 13° NNW 05:18:17 15° N 05:20:13 10° NNE visible
17 Mar 1.0 04:20:09 12° NNE 04:20:09 12° NNE 04:20:32 10° NNE visible
17 Mar 0.4 05:53:58 10° NNW 05:55:57 15° N 05:57:56 10° NE visible
18 Mar 0.3 04:55:21 14° NNW 04:55:55 14° N 04:57:44 10° NE visible
19 Mar 0.2 05:31:08 10° NW 05:33:26 18° NNE 05:35:44 10° ENE visible
20 Mar 0.5 04:33:28 15° N 04:33:28 15° N 04:35:17 10° NE visible
21 Mar -0.2 05:08:38 14° NNW 05:10:38 24° NNE 05:13:17 10° ENE visible
22 Mar 0.9 04:11:38 15° NE 04:11:38 15° NE 04:12:44 10° ENE visible
22 Mar -1.9 05:44:28 10° WNW 05:47:37 69° NNE 05:50:46 10° ESE visible
